Location: Branche des Alpilles
(43.6087°N, 4.6976°E)
Time: 12:48:07
(UTC+00:00)

Cosmos 389 Rocket - Pass Details

Date: 30 November 2020
Orbit: 442 x 473 km, 81.1° (Epoch: 25 January)

Event Time Altitude Azimuth Distance (km) Brightness Sun altitude
Rises 16:32:24 0° 185° (S) 2,428 6.6 -5.1°
Reaches altitude 10° 16:34:27 10° 184° (S) 1,560 5.6 -5.4°
Maximum altitude 16:37:51 76° 100° (E) 461 2.3 -6.0°
Drops below altitude 10° 16:41:16 10° 13° (NNE) 1,570 4.8 -6.5°
Sets 16:43:20 0° 12° (NNE) 2,446 5.8 -6.9°
